This is the latest recevied weather packets stored in our database for station/object N5ATR. If no packets are shown the sender has not sent any weather packets the latest 10 day(s).
| Time | Temp. | Humidity | Pressure | Rain* | Wind** | Luminosity | Snow |
|---|---|---|---|---|---|---|---|
| 1777579490 | 17.22° C | 39% | 1013.3 hPa | 0 mm | - | 166 W/m² | - |
| 1777579185 | 16.11° C | 37% | 1012.7 hPa | 0 mm | - | 900 W/m² | - |
| 1777578881 | 16.11° C | 39% | 1013 hPa | 0 mm | - | 635 W/m² | - |
| 1777578577 | 15.56° C | 39% | 1012.9 hPa | 0 mm | - | 889 W/m² | - |
| 1777578277 | 16.67° C | 38% | 1013 hPa | 0 mm | - | 214 W/m² | - |
| 1777577973 | 16.67° C | 37% | 1012.9 hPa | 0 mm | - | 310 W/m² | - |
| 1777577668 | 17.22° C | 37% | 1013.2 hPa | 0 mm | - | 282 W/m² | - |
| 1777577366 | 17.22° C | 37% | 1013 hPa | 0 mm | - | 915 W/m² | - |
| 1777577061 | 16.67° C | 37% | 1013.3 hPa | 0 mm | - | 861 W/m² | - |
| 1777576759 | 16.67° C | 37% | 1013.4 hPa | 0 mm | - | 948 W/m² | - |
| 1777576458 | 16.67° C | 37% | 1013.3 hPa | 0 mm | - | 932 W/m² | - |
| 1777576155 | 16.67° C | 36% | 1013.4 hPa | 0 mm | - | 311 W/m² | - |
| 1777575850 | 16.67° C | 36% | 1013.4 hPa | 0 mm | - | 963 W/m² | - |
| 1777575547 | 16.67° C | 36% | 1013.5 hPa | 0 mm | - | 867 W/m² | - |
| 1777575243 | 16.11° C | 37% | 1013.5 hPa | 0 mm | - | 860 W/m² | - |
| 1777574939 | 15.56° C | 37% | 1013.7 hPa | 0 mm | - | 895 W/m² | - |
| 1777574635 | 15.56° C | 39% | 1013.9 hPa | 0 mm | - | 573 W/m² | - |
| 1777574332 | 16.11° C | 38% | 1013.8 hPa | 0 mm | - | 274 W/m² | - |
| 1777574032 | 15.56° C | 39% | 1013.8 hPa | 0 mm | - | 867 W/m² | - |
| 1777573727 | 16.11° C | 38% | 1013.4 hPa | 0 mm | - | 796 W/m² | - |
| 1777573424 | 15° C | 40% | 1013.9 hPa | 0 mm | - | 791 W/m² | - |
| 1777573120 | 15.56° C | 40% | 1014 hPa | 0 mm | - | 787 W/m² | - |
| 1777572816 | 15.56° C | 40% | 1014.1 hPa | 0 mm | - | 785 W/m² | - |
| 1777572512 | 14.44° C | 42% | 1014.3 hPa | 0 mm | - | 783 W/m² | - |
| 1777572208 | 15° C | 41% | 1014.5 hPa | 0 mm | - | 782 W/m² | - |
* Rain latest hour (hover to see other rain measurements)
** Current wind speed in m/s (hover to see current wind gust speed)